Location: Fazenda Monte Alegre
(4.8500°S, 38.0333°W)
Time: 16:53:54
(UTC+00:00)

Cosmos 1340 Rocket - Pass Details

Date: 24 September 2020
Orbit: 529 x 558 km, 81.2° (Epoch: 24 October)

Event Time Altitude Azimuth Distance (km) Brightness Sun altitude
Rises 22:05:42 0° 192° (SSW) 2,670 6.5 -25.3°
Reaches altitude 10° 22:07:53 10° 197° (SSW) 1,778 5.6 -25.8°
Enters shadow 22:10:27 37° 218° (SW) 843 4.0 -26.5°
